Location: Mentone
(34.5413°N, 85.5351°W)
Time: 01:28:49
(UTC-06:00)

Tiros 1 despin weight - Visible Passes

Search period start: 09 February 2016 00:00
Search period end: 19 February 2016 00:00
Orbit: 597 x 645 km, 48.2° (Epoch: 08 February)

Date Brightness Start Highest point End Pass type
(mag) Time Alt. Az. Time Alt. Az. Time Alt. Az.
09 Feb ? 19:15:35 10° NW 19:18:04 14° N 19:18:20 14° N visible
10 Feb ? 17:49:48 10° WNW 17:53:13 21° NNW 17:56:37 10° NNE visible
10 Feb ? 19:33:52 10° NNW 19:35:09 13° NNW 19:35:09 13° NNW visible
11 Feb ? 18:08:25 10° NW 18:11:11 16° NNW 18:13:56 10° NNE visible
11 Feb ? 19:51:37 10° NNW 19:51:58 11° NNW 19:51:58 11° NNW visible
12 Feb ? 18:26:54 10° NW 18:29:14 14° N 18:31:32 10° NNE visible
13 Feb ? 18:44:56 10° NNW 18:47:18 14° N 18:48:26 13° NNE visible
14 Feb ? 19:02:27 10° NNW 19:05:16 17° NNE 19:05:16 17° NNE visible
15 Feb ? 19:19:43 10° NNW 19:22:07 21° N 19:22:07 21° N visible
16 Feb ? 17:55:50 10° NNW 17:58:25 15° N 18:01:00 10° NE visible
16 Feb ? 19:36:56 10° NW 19:39:02 23° NNW 19:39:02 23° NNW visible
17 Feb ? 18:13:12 10° NNW 18:16:24 19° NNE 18:18:52 13° NE visible
17 Feb ? 19:54:14 10° NW 19:56:00 23° NW 19:56:00 23° NW visible
18 Feb ? 18:30:26 10° NW 18:34:16 27° NNE 18:35:54 22° ENE visible
18 Feb ? 20:11:43 10° WNW 20:13:03 19° WNW 20:13:03 19° WNW visible
